����������;��������(kWh)
2018-11-19 00:00;81,25
2018-11-19 00:15;84,95
2018-11-19 00:30;83,25
2018-11-19 00:45;81,45
2018-11-19 01:00;81,45
2018-11-19 01:15;81,25
2018-11-19 01:30;81,85
2018-11-19 01:45;81,15
2018-11-19 02:00;82,3
2018-11-19 02:15;89,15
2018-11-19 02:30;87,85
2018-11-19 02:45;90,1
2018-11-19 03:00;94
2018-11-19 03:15;97,9
2018-11-19 03:30;98,8
2018-11-19 03:45;98,3
2018-11-19 04:00;100,9
2018-11-19 04:15;99,2
2018-11-19 04:30;97,85
2018-11-19 04:45;88,65
2018-11-19 05:00;87,5
2018-11-19 05:15;84
2018-11-19 05:30;96,55
2018-11-19 05:45;113,6
2018-11-19 06:00;116,05
2018-11-19 06:15;109,3
2018-11-19 06:30;100,5
2018-11-19 06:45;97,2
2018-11-19 07:00;92,5
2018-11-19 07:15;97,2
2018-11-19 07:30;97,2
2018-11-19 07:45;151,7
2018-11-19 08:00;168,85
2018-11-19 08:15;136,85
2018-11-19 08:30;116,4
2018-11-19 08:45;135,85
2018-11-19 09:00;126,95
2018-11-19 09:15;147
2018-11-19 09:30;142,15
2018-11-19 09:45;155,55
2018-11-19 10:00;153,9
2018-11-19 10:15;163,7
2018-11-19 10:30;158,85
2018-11-19 10:45;171,55
2018-11-19 11:00;160,9
2018-11-19 11:15;177,3
2018-11-19 11:30;164,9
2018-11-19 11:45;176,65
2018-11-19 12:00;167,95
2018-11-19 12:15;182,1
2018-11-19 12:30;170,4
2018-11-19 12:45;182,65
2018-11-19 13:00;167
2018-11-19 13:15;178,85
2018-11-19 13:30;179,85
2018-11-19 13:45;172,9
2018-11-19 14:00;181
2018-11-19 14:15;171,95
2018-11-19 14:30;182,9
2018-11-19 14:45;173,8
2018-11-19 15:00;178,9
2018-11-19 15:15;166,4
2018-11-19 15:30;176,55
2018-11-19 15:45;166,3
2018-11-19 16:00;159,25
2018-11-19 16:15;159,45
2018-11-19 16:30;156,3
2018-11-19 16:45;148,7
2018-11-19 17:00;146,55
2018-11-19 17:15;138,2
2018-11-19 17:30;138,45
2018-11-19 17:45;146,5
2018-11-19 18:00;149,8
2018-11-19 18:15;149,95
2018-11-19 18:30;145,55
2018-11-19 18:45;144,8
2018-11-19 19:00;152,3
2018-11-19 19:15;142,95
2018-11-19 19:30;136,45
2018-11-19 19:45;135,65
2018-11-19 20:00;128,1
2018-11-19 20:15;122,8
2018-11-19 20:30;116,35
2018-11-19 20:45;114,75
2018-11-19 21:00;110,2
2018-11-19 21:15;105,2
2018-11-19 21:30;101,1
2018-11-19 21:45;93,65
2018-11-19 22:00;92,85
2018-11-19 22:15;90,9
2018-11-19 22:30;89,8
2018-11-19 22:45;91
2018-11-19 23:00;89,2
2018-11-19 23:15;88,5
2018-11-19 23:30;87,4
2018-11-19 23:45;89
2018-11-20 00:00;86,3
2018-11-20 00:15;84,8
2018-11-20 00:30;82,85
2018-11-20 00:45;83,4
2018-11-20 01:00;84,25
2018-11-20 01:15;83,3
2018-11-20 01:30;80,65
2018-11-20 01:45;81,5
2018-11-20 02:00;81,05
2018-11-20 02:15;81,95
2018-11-20 02:30;81,35
2018-11-20 02:45;81,25
2018-11-20 03:00;80,9
2018-11-20 03:15;85,05
2018-11-20 03:30;90,8
2018-11-20 03:45;96
2018-11-20 04:00;96
2018-11-20 04:15;95,6
2018-11-20 04:30;98,1
2018-11-20 04:45;93,55
2018-11-20 05:00;87,3
2018-11-20 05:15;88,1
2018-11-20 05:30;90,1
2018-11-20 05:45;98,65
2018-11-20 06:00;114,6
2018-11-20 06:15;113,75
2018-11-20 06:30;108,25
2018-11-20 06:45;100,4
2018-11-20 07:00;98,8
2018-11-20 07:15;104,15
2018-11-20 07:30;101,55
2018-11-20 07:45;158,45
2018-11-20 08:00;169,7
2018-11-20 08:15;119,2
2018-11-20 08:30;119,35
2018-11-20 08:45;128,6
2018-11-20 09:00;132,75
2018-11-20 09:15;156
2018-11-20 09:30;154,8
2018-11-20 09:45;168,75
2018-11-20 10:00;151,9
2018-11-20 10:15;174,95
2018-11-20 10:30;167,55
2018-11-20 10:45;182,6
2018-11-20 11:00;177,65
2018-11-20 11:15;196,45
2018-11-20 11:30;179,15
2018-11-20 11:45;191,95
2018-11-20 12:00;183,1
2018-11-20 12:15;183,35
2018-11-20 12:30;179,65
2018-11-20 12:45;171,8
2018-11-20 13:00;189,5
2018-11-20 13:15;172,4
2018-11-20 13:30;183,8
2018-11-20 13:45;175,55
2018-11-20 14:00;182
2018-11-20 14:15;182,25
2018-11-20 14:30;170,9
2018-11-20 14:45;169,75
2018-11-20 15:00;167,5
2018-11-20 15:15;157,4
2018-11-20 15:30;159,25
2018-11-20 15:45;154,2
2018-11-20 16:00;158
2018-11-20 16:15;155,25
2018-11-20 16:30;156,3
2018-11-20 16:45;156,85
2018-11-20 17:00;157,15
2018-11-20 17:15;148,85
2018-11-20 17:30;150
2018-11-20 17:45;148,5
2018-11-20 18:00;144,6
2018-11-20 18:15;137,4
2018-11-20 18:30;139,35
2018-11-20 18:45;140,9
2018-11-20 19:00;138,35
2018-11-20 19:15;135,65
2018-11-20 19:30;132,45
2018-11-20 19:45;132,9
2018-11-20 20:00;127
2018-11-20 20:15;125,8
2018-11-20 20:30;118,9
2018-11-20 20:45;115,3
2018-11-20 21:00;112,15
2018-11-20 21:15;108,4
2018-11-20 21:30;106,8
2018-11-20 21:45;98,4
2018-11-20 22:00;97,8
2018-11-20 22:15;102,55
2018-11-20 22:30;103,3
2018-11-20 22:45;104,25
2018-11-20 23:00;102
2018-11-20 23:15;92,25
2018-11-20 23:30;91,9
2018-11-20 23:45;92,65
2018-11-21 00:00;91,1
2018-11-21 00:15;89,35
2018-11-21 00:30;88,7
2018-11-21 00:45;81,25
2018-11-21 01:00;83,6
2018-11-21 01:15;92,7
2018-11-21 01:30;93,15
2018-11-21 01:45;92,7
2018-11-21 02:00;88,95
2018-11-21 02:15;82,8
2018-11-21 02:30;85,75
2018-11-21 02:45;87,2
2018-11-21 03:00;81,2
2018-11-21 03:15;81,3
2018-11-21 03:30;81,9
2018-11-21 03:45;83,6
2018-11-21 04:00;82,95
2018-11-21 04:15;79,85
2018-11-21 04:30;83,05
2018-11-21 04:45;84,55
2018-11-21 05:00;84,25
2018-11-21 05:15;80,35
2018-11-21 05:30;78,75
2018-11-21 05:45;79,9
2018-11-21 06:00;80,35
2018-11-21 06:15;105,2
2018-11-21 06:30;119,85
2018-11-21 06:45;112,95
2018-11-21 07:00;96,3
2018-11-21 07:15;89,2
2018-11-21 07:30;95,7
2018-11-21 07:45;90,75
2018-11-21 08:00;90,05
2018-11-21 08:15;91,3
2018-11-21 08:30;92,3
2018-11-21 08:45;92,75
2018-11-21 09:00;91,2
2018-11-21 09:15;95,3
2018-11-21 09:30;93,95
2018-11-21 09:45;92,45
2018-11-21 10:00;90,15
2018-11-21 10:15;95,25
2018-11-21 10:30;92,15
2018-11-21 10:45;94,85
2018-11-21 11:00;98,05
2018-11-21 11:15;106,9
2018-11-21 11:30;101,55
2018-11-21 11:45;102,7
2018-11-21 12:00;100,7
2018-11-21 12:15;103,75
2018-11-21 12:30;96,65
2018-11-21 12:45;96,3
2018-11-21 13:00;96
2018-11-21 13:15;96,55
2018-11-21 13:30;95,1
2018-11-21 13:45;97,2
2018-11-21 14:00;94,6
2018-11-21 14:15;93,1
2018-11-21 14:30;97,8
2018-11-21 14:45;96,55
2018-11-21 15:00;94,75
2018-11-21 15:15;96,6
2018-11-21 15:30;97,55
2018-11-21 15:45;97,75
2018-11-21 16:00;97,8
2018-11-21 16:15;93,9
2018-11-21 16:30;94,15
2018-11-21 16:45;98,15
2018-11-21 17:00;97,95
2018-11-21 17:15;96
2018-11-21 17:30;95,85
2018-11-21 17:45;102,25
2018-11-21 18:00;107,35
2018-11-21 18:15;103,1
2018-11-21 18:30;104,1
2018-11-21 18:45;103,6
2018-11-21 19:00;108,75
2018-11-21 19:15;105,3
2018-11-21 19:30;105
2018-11-21 19:45;107,15
2018-11-21 20:00;104,25
2018-11-21 20:15;100,05
2018-11-21 20:30;95,85
2018-11-21 20:45;95,7
2018-11-21 21:00;93
2018-11-21 21:15;91,25
2018-11-21 21:30;89
2018-11-21 21:45;86,45
2018-11-21 22:00;83,25
2018-11-21 22:15;83,05
2018-11-21 22:30;83,25
2018-11-21 22:45;81,4
2018-11-21 23:00;81,2
2018-11-21 23:15;80,5
2018-11-21 23:30;82,2
2018-11-21 23:45;84,4
2018-11-22 00:00;79,15
2018-11-22 00:15;79,15
2018-11-22 00:30;78,7
2018-11-22 00:45;77,25
2018-11-22 01:00;76,35
2018-11-22 01:15;79
2018-11-22 01:30;79,65
2018-11-22 01:45;92,2
2018-11-22 02:00;93,1
2018-11-22 02:15;91
2018-11-22 02:30;93,15
2018-11-22 02:45;92,8
2018-11-22 03:00;89,1
2018-11-22 03:15;88,75
2018-11-22 03:30;88,05
2018-11-22 03:45;85,9
2018-11-22 04:00;87,2
2018-11-22 04:15;86,05
2018-11-22 04:30;85,1
2018-11-22 04:45;89,8
2018-11-22 05:00;88,1
2018-11-22 05:15;87
2018-11-22 05:30;88
2018-11-22 05:45;89,55
2018-11-22 06:00;86,4
2018-11-22 06:15;87
2018-11-22 06:30;87,25
2018-11-22 06:45;99,85
2018-11-22 07:00;118
2018-11-22 07:15;117,35
2018-11-22 07:30;108,7
2018-11-22 07:45;104,5
2018-11-22 08:00;104,6
2018-11-22 08:15;108,1
2018-11-22 08:30;114,75
2018-11-22 08:45;116,6
2018-11-22 09:00;120,75
2018-11-22 09:15;124,55
2018-11-22 09:30;127,8
2018-11-22 09:45;130,6
2018-11-22 10:00;135,5
2018-11-22 10:15;137,95
2018-11-22 10:30;134,9
2018-11-22 10:45;143,95
2018-11-22 11:00;145
2018-11-22 11:15;158,4
2018-11-22 11:30;181,1
2018-11-22 11:45;223,3
2018-11-22 12:00;222,75
2018-11-22 12:15;166,55
2018-11-22 12:30;174,25
2018-11-22 12:45;166,1
2018-11-22 13:00;178,05
2018-11-22 13:15;175,85
2018-11-22 13:30;178,75
2018-11-22 13:45;176
2018-11-22 14:00;178,8
2018-11-22 14:15;175,3
2018-11-22 14:30;174,45
2018-11-22 14:45;171,4
2018-11-22 15:00;157,6
2018-11-22 15:15;162,5
2018-11-22 15:30;152,3
2018-11-22 15:45;148,45
2018-11-22 16:00;144,2
2018-11-22 16:15;145,8
2018-11-22 16:30;142,6
2018-11-22 16:45;137,4
2018-11-22 17:00;142,6
2018-11-22 17:15;137,1
2018-11-22 17:30;132,7
2018-11-22 17:45;137,7
2018-11-22 18:00;138,4
2018-11-22 18:15;140,75
2018-11-22 18:30;139,25
2018-11-22 18:45;140,75
2018-11-22 19:00;142,95
2018-11-22 19:15;138,25
2018-11-22 19:30;138,15
2018-11-22 19:45;125,9
2018-11-22 20:00;122,9
2018-11-22 20:15;116,25
2018-11-22 20:30;111,15
2018-11-22 20:45;110,25
2018-11-22 21:00;109,8
2018-11-22 21:15;103,55
2018-11-22 21:30;97,85
2018-11-22 21:45;99,7
2018-11-22 22:00;93,05
2018-11-22 22:15;87,4
2018-11-22 22:30;87,6
2018-11-22 22:45;87,3
2018-11-22 23:00;88,1
2018-11-22 23:15;87,15
2018-11-22 23:30;85,4
2018-11-22 23:45;88,05
2018-11-23 00:00;85,5
2018-11-23 00:15;86,55
2018-11-23 00:30;84,25
2018-11-23 00:45;84,1
2018-11-23 01:00;83,1
2018-11-23 01:15;82,4
2018-11-23 01:30;84,5
2018-11-23 01:45;93,3
2018-11-23 02:00;96,45
2018-11-23 02:15;96,75
2018-11-23 02:30;98,45
2018-11-23 02:45;99,95
2018-11-23 03:00;91,3
2018-11-23 03:15;85,55
2018-11-23 03:30;90,65
2018-11-23 03:45;110,1
2018-11-23 04:00;117,45
2018-11-23 04:15;111,1
2018-11-23 04:30;103,75
2018-11-23 04:45;95,25
2018-11-23 05:00;100,05
2018-11-23 05:15;96,7
2018-11-23 05:30;94,7
2018-11-23 05:45;96,25
2018-11-23 06:00;92,75
2018-11-23 06:15;91,95
2018-11-23 06:30;93,85
2018-11-23 06:45;96,05
2018-11-23 07:00;92,75
2018-11-23 07:15;93,45
2018-11-23 07:30;98,6
2018-11-23 07:45;159,65
2018-11-23 08:00;111,8
2018-11-23 08:15;122,4
2018-11-23 08:30;119,25
2018-11-23 08:45;128,9
2018-11-23 09:00;135,25
2018-11-23 09:15;143,3
2018-11-23 09:30;157,85
2018-11-23 09:45;158,85
2018-11-23 10:00;166,9
2018-11-23 10:15;162,8
2018-11-23 10:30;162,45
2018-11-23 10:45;176,05
2018-11-23 11:00;177,4
2018-11-23 11:15;189,1
2018-11-23 11:30;186,25
2018-11-23 11:45;195,9
2018-11-23 12:00;188,45
2018-11-23 12:15;193,6
2018-11-23 12:30;194,5
2018-11-23 12:45;185,65
2018-11-23 13:00;192,65
2018-11-23 13:15;188,15
2018-11-23 13:30;185
2018-11-23 13:45;193,55
2018-11-23 14:00;175,4
2018-11-23 14:15;186,8
2018-11-23 14:30;180,5
2018-11-23 14:45;177,1
2018-11-23 15:00;168,35
2018-11-23 15:15;164,55
2018-11-23 15:30;167,5
2018-11-23 15:45;157,25
2018-11-23 16:00;148,65
2018-11-23 16:15;145,2
2018-11-23 16:30;139,05
2018-11-23 16:45;137,45
2018-11-23 17:00;138,95
2018-11-23 17:15;137,45
2018-11-23 17:30;144,2
2018-11-23 17:45;142,05
2018-11-23 18:00;140,7
2018-11-23 18:15;138,85
2018-11-23 18:30;137,45
2018-11-23 18:45;140,25
2018-11-23 19:00;138,5
2018-11-23 19:15;132,1
2018-11-23 19:30;129,35
2018-11-23 19:45;117,75
2018-11-23 20:00;116,6
2018-11-23 20:15;111,5
2018-11-23 20:30;109,6
2018-11-23 20:45;110,1
2018-11-23 21:00;108,75
2018-11-23 21:15;105
2018-11-23 21:30;105,15
2018-11-23 21:45;91,45
2018-11-23 22:00;85,35
2018-11-23 22:15;85,7
2018-11-23 22:30;84,35
2018-11-23 22:45;84,05
2018-11-23 23:00;82,85
2018-11-23 23:15;82,65
2018-11-23 23:30;80,85
2018-11-23 23:45;84,7
2018-11-24 00:00;79
2018-11-24 00:15;78,8
2018-11-24 00:30;79,05
2018-11-24 00:45;79,3
2018-11-24 01:00;80,7
2018-11-24 01:15;79,2
2018-11-24 01:30;77,7
2018-11-24 01:45;78,55
2018-11-24 02:00;77,8
2018-11-24 02:15;77,85
2018-11-24 02:30;82,15
2018-11-24 02:45;81,15
2018-11-24 03:00;81,9
2018-11-24 03:15;83,1
2018-11-24 03:30;83,45
2018-11-24 03:45;83,05
2018-11-24 04:00;84,15
2018-11-24 04:15;83,3
2018-11-24 04:30;83,75
2018-11-24 04:45;82,3
2018-11-24 05:00;81,05
2018-11-24 05:15;79,45
2018-11-24 05:30;80
2018-11-24 05:45;80,1
2018-11-24 06:00;80,6
2018-11-24 06:15;77,75
2018-11-24 06:30;77,75
2018-11-24 06:45;77,5
2018-11-24 07:00;75,55
2018-11-24 07:15;75,05
2018-11-24 07:30;76,15
2018-11-24 07:45;73,65
2018-11-24 08:00;74,55
2018-11-24 08:15;73,35
2018-11-24 08:30;79,1
2018-11-24 08:45;77,55
2018-11-24 09:00;77,35
2018-11-24 09:15;76,2
2018-11-24 09:30;72,65
2018-11-24 09:45;73,05
2018-11-24 10:00;72,6
2018-11-24 10:15;71,25
2018-11-24 10:30;74
2018-11-24 10:45;73,05
2018-11-24 11:00;75,65
2018-11-24 11:15;77,2
2018-11-24 11:30;74,9
2018-11-24 11:45;73,45
2018-11-24 12:00;73,35
2018-11-24 12:15;75,55
2018-11-24 12:30;75,9
2018-11-24 12:45;73,75
2018-11-24 13:00;74,85
2018-11-24 13:15;74,1
2018-11-24 13:30;72,05
2018-11-24 13:45;72,55
2018-11-24 14:00;74,55
2018-11-24 14:15;75,35
2018-11-24 14:30;78,1
2018-11-24 14:45;74,55
2018-11-24 15:00;75
2018-11-24 15:15;73,6
2018-11-24 15:30;76,55
2018-11-24 15:45;78,05
2018-11-24 16:00;75,7
2018-11-24 16:15;74,2
2018-11-24 16:30;77,35
2018-11-24 16:45;81
2018-11-24 17:00;79,85
2018-11-24 17:15;81,9
2018-11-24 17:30;83,85
2018-11-24 17:45;87,2
2018-11-24 18:00;87,75
2018-11-24 18:15;88,35
2018-11-24 18:30;89,25
2018-11-24 18:45;92,65
2018-11-24 19:00;95,1
2018-11-24 19:15;91,4
2018-11-24 19:30;93,4
2018-11-24 19:45;94,15
2018-11-24 20:00;93,85
2018-11-24 20:15;92,5
2018-11-24 20:30;93,55
2018-11-24 20:45;95,45
2018-11-24 21:00;93,65
2018-11-24 21:15;93,35
2018-11-24 21:30;91,15
2018-11-24 21:45;85,85
2018-11-24 22:00;86,3
2018-11-24 22:15;85,6
2018-11-24 22:30;85,6
2018-11-24 22:45;85,15
2018-11-24 23:00;85,35
2018-11-24 23:15;82,75
2018-11-24 23:30;82,45
2018-11-24 23:45;85,6
2018-11-25 00:00;80,5
2018-11-25 00:15;80,45
2018-11-25 00:30;82,85
2018-11-25 00:45;79,8
2018-11-25 01:00;82,95
2018-11-25 01:15;82,6
2018-11-25 01:30;83,05
2018-11-25 01:45;81,7
2018-11-25 02:00;82,3
2018-11-25 02:15;81,75
2018-11-25 02:30;82,05
2018-11-25 02:45;81,65
2018-11-25 03:00;81,45
2018-11-25 03:15;84,4
2018-11-25 03:30;83,3
2018-11-25 03:45;84
2018-11-25 04:00;80,3
2018-11-25 04:15;79,2
2018-11-25 04:30;78,65
2018-11-25 04:45;78,4
2018-11-25 05:00;77,55
2018-11-25 05:15;75,65
2018-11-25 05:30;77,05
2018-11-25 05:45;76
2018-11-25 06:00;74,1
2018-11-25 06:15;73,9
2018-11-25 06:30;73,2
2018-11-25 06:45;72,35
2018-11-25 07:00;70,7
2018-11-25 07:15;72,3
2018-11-25 07:30;70,7
2018-11-25 07:45;70,6
2018-11-25 08:00;69,85
2018-11-25 08:15;70,35
2018-11-25 08:30;70,15
2018-11-25 08:45;68,6
2018-11-25 09:00;70,5
2018-11-25 09:15;71,25
2018-11-25 09:30;71,55
2018-11-25 09:45;70,5
2018-11-25 10:00;69,3
2018-11-25 10:15;69,5
2018-11-25 10:30;70,5
2018-11-25 10:45;71
2018-11-25 11:00;71,5
2018-11-25 11:15;74,5
2018-11-25 11:30;74,9
2018-11-25 11:45;75,3
2018-11-25 12:00;73,45
2018-11-25 12:15;76,9
2018-11-25 12:30;77,35
2018-11-25 12:45;78,3
2018-11-25 13:00;76,7
2018-11-25 13:15;77,2
2018-11-25 13:30;74,65
2018-11-25 13:45;74,85
2018-11-25 14:00;73,4
2018-11-25 14:15;76,8
2018-11-25 14:30;82,3
2018-11-25 14:45;78,85
2018-11-25 15:00;79,2
2018-11-25 15:15;76,1
2018-11-25 15:30;75,55
2018-11-25 15:45;72,7
2018-11-25 16:00;75,95
2018-11-25 16:15;74,85
2018-11-25 16:30;74,05
2018-11-25 16:45;76,5
2018-11-25 17:00;78
2018-11-25 17:15;79,75
2018-11-25 17:30;81,4
2018-11-25 17:45;85,95
2018-11-25 18:00;86,25
2018-11-25 18:15;88,25
2018-11-25 18:30;94,05
2018-11-25 18:45;94,1
2018-11-25 19:00;95,2
2018-11-25 19:15;92,45
2018-11-25 19:30;93,4
2018-11-25 19:45;93,4
2018-11-25 20:00;91,7
2018-11-25 20:15;89,8
2018-11-25 20:30;87,9
2018-11-25 20:45;85,25
2018-11-25 21:00;86,05
2018-11-25 21:15;84,25
2018-11-25 21:30;85,45
2018-11-25 21:45;84,55
2018-11-25 22:00;83
2018-11-25 22:15;84,1
2018-11-25 22:30;85,9
2018-11-25 22:45;86,4
2018-11-25 23:00;88,15
2018-11-25 23:15;86,25
2018-11-25 23:30;86,6
2018-11-25 23:45;86,6

